Hourly Weather Almaguer

Today, 4 March, Thursday

Time Temperature Precipitation Wind Pressure Humidity
00:00 +13°C° 0.9 mm 0 mps 587 mmHg 95%
01:00 +13°C° 0.9 mm 0 mps 586 mmHg 95%
02:00 +13°C° 1.5 mm 0 mps 586 mmHg 96%
03:00 +13°C° 1.5 mm 0 mps 586 mmHg 96%
04:00 +13°C° 1.5 mm 0 mps 586 mmHg 96%
05:00 +13°C° 1.1 mm 0 mps 586 mmHg 96%
06:00 +13°C° 1.1 mm 0 mps 586 mmHg 96%
07:00 +13°C° 1.1 mm 0 mps 587 mmHg 96%
08:00 +14°C° 0.4 mm 0 mps 587 mmHg 94%
09:00 +15°C° 0.4 mm 0 mps 588 mmHg 91%
10:00 +18°C° 0.4 mm 1 mps 589 mmHg 89%
11:00 +19°C° 0.8 mm 1 mps 589 mmHg 86%
12:00 +19°C° 0.8 mm 1 mps 588 mmHg 84%
13:00 +20°C° 0.8 mm 1 mps 588 mmHg 81%
14:00 +20°C° 1.3 mm 1 mps 587 mmHg 82%
15:00 +18°C° 1.3 mm 0 mps 587 mmHg 82%
16:00 +17°C° 1.3 mm 0 mps 586 mmHg 83%
17:00 +16°C° 1 mm 0 mps 586 mmHg 86%
18:00 +15°C° 1 mm 0 mps 585 mmHg 90%
19:00 +14°C° 1 mm 0 mps 585 mmHg 94%
20:00 +13°C° 0.6 mm 0 mps 585 mmHg 94%
21:00 +13°C° 0.6 mm 0 mps 586 mmHg 93%
22:00 +14°C° 0.6 mm 1 mps 587 mmHg 93%
23:00 +14°C° 0.3 mm 1 mps 586 mmHg 93%

Tomorrow, 5 March, Friday

Time Temperature Precipitation Wind Pressure Humidity
00:00 +13°C° 0.3 mm 0 mps 586 mmHg 93%
01:00 +12°C° 0.3 mm 0 mps 585 mmHg 93%
02:00 +12°C° 0.6 mm 0 mps 585 mmHg 93%
03:00 +12°C° 0.6 mm 0 mps 585 mmHg 94%
04:00 +12°C° 0.6 mm 0 mps 585 mmHg 94%
05:00 +13°C° 0.9 mm 0 mps 585 mmHg 95%
06:00 +13°C° 0.9 mm 0 mps 585 mmHg 95%
07:00 +13°C° 0.9 mm 0 mps 586 mmHg 95%
08:00 +13°C° 0.7 mm 0 mps 586 mmHg 94%
09:00 +14°C° 0.7 mm 0 mps 587 mmHg 94%
10:00 +14°C° 0.7 mm 0 mps 587 mmHg 94%
11:00 +16°C° 0.5 mm 0 mps 587 mmHg 89%
12:00 +19°C° 0.5 mm 1 mps 587 mmHg 84%
13:00 +21°C° 0.5 mm 1 mps 587 mmHg 79%
14:00 +20°C° 1.1 mm 1 mps 587 mmHg 80%
15:00 +20°C° 1.1 mm 1 mps 586 mmHg 82%
16:00 +19°C° 1.1 mm 1 mps 585 mmHg 83%
17:00 +18°C° 3.2 mm 1 mps 585 mmHg 87%
18:00 +16°C° 3.2 mm 1 mps 585 mmHg 91%
19:00 +15°C° 3.2 mm 1 mps 585 mmHg 94%
20:00 +14°C° 1.9 mm 1 mps 585 mmHg 94%
21:00 +14°C° 1.9 mm 1 mps 585 mmHg 94%
22:00 +13°C° 1.9 mm 0 mps 586 mmHg 94%
23:00 +13°C° 1.6 mm 0 mps 586 mmHg 95%

Day after tomorrow, 6 March, Saturday

Time Temperature Precipitation Wind Pressure Humidity
00:00 +13°C° 1.6 mm 0 mps 585 mmHg 96%
01:00 +12°C° 1.6 mm 0 mps 585 mmHg 96%
02:00 +12°C° 0.4 mm 0 mps 585 mmHg 96%
03:00 +12°C° 0.4 mm 0 mps 585 mmHg 96%
04:00 +12°C° 0.4 mm 0 mps 584 mmHg 96%
05:00 +12°C° 0.1 mm 0 mps 585 mmHg 96%
06:00 +12°C° 0.1 mm 0 mps 585 mmHg 95%
07:00 +12°C° 0.1 mm 0 mps 585 mmHg 95%
08:00 +15°C° 0.3 mm 1 mps 586 mmHg 92%
09:00 +16°C° 0.3 mm 1 mps 587 mmHg 89%
10:00 +18°C° 0.3 mm 1 mps 588 mmHg 87%
11:00 +19°C° 0.8 mm 1 mps 588 mmHg 83%
12:00 +20°C° 0.8 mm 1 mps 588 mmHg 80%
13:00 +21°C° 0.8 mm 1 mps 588 mmHg 77%
14:00 +21°C° 1.2 mm 1 mps 587 mmHg 79%
15:00 +21°C° 1.2 mm 1 mps 586 mmHg 80%
16:00 +20°C° 1.2 mm 1 mps 586 mmHg 82%
17:00 +19°C° 1.3 mm 1 mps 585 mmHg 86%
18:00 +18°C° 1.3 mm 1 mps 585 mmHg 90%
19:00 +15°C° 1.3 mm 1 mps 585 mmHg 94%
20:00 +15°C° 0.7 mm 1 mps 585 mmHg 94%
21:00 +15°C° 0.7 mm 1 mps 586 mmHg 93%
22:00 +14°C° 0.7 mm 1 mps 586 mmHg 93%
23:00 +14°C° 0.2 mm 1 mps 586 mmHg 94%

7 March, Sunday

Time Temperature Precipitation Wind Pressure Humidity
00:00 +13°C° 0.2 mm 1 mps 585 mmHg 94%
01:00 +13°C° 0.2 mm 1 mps 585 mmHg 94%
02:00 +13°C° 0.1 mm 1 mps 585 mmHg 94%
03:00 +13°C° 0.1 mm 1 mps 585 mmHg 94%
04:00 +13°C° 0.1 mm 1 mps 584 mmHg 93%
05:00 +13°C° 0.2 mm 1 mps 585 mmHg 93%
06:00 +13°C° 0.2 mm 1 mps 586 mmHg 93%
07:00 +14°C° 0.2 mm 1 mps 586 mmHg 93%
08:00 +15°C° 0.1 mm 1 mps 587 mmHg 89%
09:00 +18°C° 0.1 mm 1 mps 588 mmHg 85%
10:00 +19°C° 0.1 mm 1 mps 589 mmHg 82%
11:00 +20°C° 0.6 mm 1 mps 589 mmHg 80%
12:00 +21°C° 0.6 mm 1 mps 588 mmHg 79%
13:00 +21°C° 0.6 mm 1 mps 588 mmHg 77%
14:00 +21°C° 1.2 mm 1 mps 587 mmHg 80%
15:00 +20°C° 1.2 mm 1 mps 587 mmHg 83%
16:00 +20°C° 1.2 mm 1 mps 586 mmHg 86%
17:00 +18°C° 1.7 mm 1 mps 586 mmHg 89%
18:00 +16°C° 1.7 mm 1 mps 586 mmHg 92%
19:00 +15°C° 1.7 mm 1 mps 586 mmHg 95%
20:00 +15°C° 0.5 mm 1 mps 586 mmHg 95%
21:00 +15°C° 0.5 mm 1 mps 587 mmHg 95%
22:00 +14°C° 0.5 mm 1 mps 587 mmHg 95%
23:00 +14°C° 0.2 mm 1 mps 587 mmHg 95%

8 March, Monday

Time Temperature Precipitation Wind Pressure Humidity
00:00 +14°C° 0.2 mm 1 mps 586 mmHg 94%
01:00 +14°C° 0.2 mm 1 mps 586 mmHg 94%
02:00 +14°C° 0.2 mm 1 mps 586 mmHg 94%
03:00 +13°C° 0.2 mm 0 mps 586 mmHg 95%
04:00 +13°C° 0.2 mm 0 mps 585 mmHg 95%
05:00 +13°C° 0.6 mm 0 mps 586 mmHg 95%
06:00 +13°C° 0.6 mm 0 mps 586 mmHg 95%
07:00 +14°C° 0.6 mm 1 mps 586 mmHg 95%
08:00 +13°C° 0.5 mm 0 mps 587 mmHg 95%
09:00 +14°C° 0.5 mm 0 mps 587 mmHg 95%
10:00 +14°C° 0.5 mm 0 mps 588 mmHg 94%
11:00 +14°C° 0.6 mm 0 mps 587 mmHg 94%
12:00 +16°C° 0.6 mm 1 mps 587 mmHg 95%
13:00 +16°C° 0.6 mm 1 mps 587 mmHg 95%
14:00 +16°C° 0.3 mm 1 mps 586 mmHg 94%
15:00 +15°C° 0.3 mm 0 mps 586 mmHg 93%
16:00 +15°C° 0.3 mm 0 mps 586 mmHg 92%
17:00 +14°C° 0.8 mm 0 mps 586 mmHg 93%
18:00 +14°C° 0.8 mm 0 mps 586 mmHg 95%
19:00 +13°C° 0.8 mm 0 mps 586 mmHg 96%
20:00 +13°C° 0.2 mm 0 mps 586 mmHg 96%
21:00 +13°C° 0.2 mm 0 mps 586 mmHg 96%
22:00 +12°C° 0.2 mm 0 mps 587 mmHg 96%
23:00 +12°C° 0 mm 0 mps 586 mmHg 96%

9 March, Tuesday

Time Temperature Precipitation Wind Pressure Humidity
00:00 +12°C° 0 mm 0 mps 586 mmHg 96%
01:00 +12°C° 0 mm 0 mps 586 mmHg 96%
02:00 +12°C° 0.1 mm 0 mps 585 mmHg 96%
03:00 +12°C° 0.1 mm 0 mps 585 mmHg 96%
04:00 +12°C° 0.1 mm 0 mps 585 mmHg 96%
05:00 +12°C° 0.2 mm 0 mps 585 mmHg 96%
06:00 +12°C° 0.2 mm 0 mps 585 mmHg 96%
07:00 +12°C° 0.2 mm 0 mps 586 mmHg 96%
08:00 +13°C° 0.2 mm 0 mps 586 mmHg 95%
09:00 +14°C° 0.2 mm 0 mps 587 mmHg 95%
10:00 +14°C° 0.2 mm 0 mps 588 mmHg 94%
11:00 +14°C° 0.8 mm 0 mps 587 mmHg 95%
12:00 +14°C° 0.8 mm 0 mps 587 mmHg 95%
13:00 +14°C° 0.8 mm 0 mps 587 mmHg 96%
14:00 +14°C° 0.8 mm 0 mps 586 mmHg 96%
15:00 +14°C° 0.8 mm 0 mps 586 mmHg 96%
16:00 +14°C° 0.8 mm 0 mps 585 mmHg 96%
17:00 +13°C° 0.3 mm 0 mps 585 mmHg 97%
18:00 +13°C° 0.3 mm 0 mps 585 mmHg 98%
19:00 +13°C° 0.3 mm 0 mps 585 mmHg 99%
20:00 +13°C° 0.7 mm 0 mps 586 mmHg 98%
21:00 +12°C° 0.7 mm 0 mps 586 mmHg 98%
22:00 +12°C° 0.7 mm 0 mps 586 mmHg 98%
23:00 +12°C° 0.3 mm 0 mps 586 mmHg 98%
Show more